Location: Unspecified
(58.9262°N, 0.0000°E)
Time: 00:26:53
(UTC+00:00)

SWARM B - Visible Passes

Search period start: 04 April 2026 00:00
Search period end: 14 April 2026 00:00
Orbit: 480 x 484 km, 87.8° (Epoch: 29 March)

Date Brightness Start Highest point End Pass type
(mag) Time Alt. Az. Time Alt. Az. Time Alt. Az.
4 Apr ? 00:50:14 10° NW 00:51:25 12° WNW 00:51:25 12° WNW visible
4 Apr ? 22:48:52 10° N 22:51:45 48° NNE 22:51:45 48° NNE visible
5 Apr ? 00:24:00 10° NNW 00:26:03 18° WNW 00:26:03 18° WNW visible
5 Apr ? 22:23:25 10° N 22:26:22 36° ENE 22:26:22 36° ENE visible
5 Apr ? 23:58:05 10° NNW 00:00:41 26° WNW 00:00:41 26° WNW visible
6 Apr ? 21:58:04 10° NNE 22:00:59 26° ENE 22:00:59 26° ENE visible
6 Apr ? 23:32:19 10° NNW 23:35:18 38° WNW 23:35:18 38° WNW visible
7 Apr ? 21:32:51 10° NNE 21:35:25 18° ENE 21:35:36 18° ENE visible
7 Apr ? 23:06:39 10° N 23:09:54 59° NW 23:09:54 59° NW visible
8 Apr ? 21:07:57 10° NE 21:09:37 13° ENE 21:10:12 12° ENE visible
8 Apr ? 22:41:03 10° N 22:44:31 77° NE 22:44:31 77° NE visible
9 Apr ? 00:16:34 10° NW 00:18:37 15° WNW 00:18:49 15° WNW visible
9 Apr ? 22:15:30 10° N 22:19:04 51° E 22:19:07 51° E visible
9 Apr ? 23:50:26 10° NNW 23:53:14 21° WNW 23:53:25 21° W visible
10 Apr ? 21:50:03 10° NNE 21:53:23 33° ENE 21:53:43 32° E visible
10 Apr ? 23:24:32 10° NNW 23:27:47 31° W 23:28:01 31° W visible
11 Apr ? 21:24:41 10° NNE 21:27:37 22° ENE 21:28:18 21° E visible
11 Apr ? 22:58:46 10° NNW 23:02:17 48° W 23:02:36 46° WSW visible
12 Apr ? 20:59:30 10° NNE 21:01:48 16° ENE 21:02:53 14° E visible
12 Apr ? 22:33:04 10° N 22:36:43 76° W 22:37:11 64° SSW visible
13 Apr ? 00:09:12 10° NW 00:10:29 12° WNW 00:11:29 11° W visible
13 Apr ? 20:34:52 10° NE 20:35:54 11° ENE 20:36:55 10° E visible
13 Apr ? 22:07:27 10° N 22:11:05 68° E 22:11:46 53° SE visible
13 Apr ? 23:42:42 10° NNW 23:45:06 17° WNW 23:46:04 15° W visible
